TimeMDT,TemperatureF,Dew PointF,Humidity,Sea Level PressureIn,VisibilityMPH,Wind Direction,Wind SpeedMPH,Gust SpeedMPH,PrecipitationIn,Events,Conditions,WindDirDegrees,DateUTC
12:53 AM,42.1,24.1,49,30.13,10.0,East,6.9,-,N/A,,Clear,80,2012-10-31 06:53:00
1:53 AM,41.0,24.1,51,30.14,10.0,SE,11.5,-,N/A,,Clear,130,2012-10-31 07:53:00
2:53 AM,45.0,25.0,46,30.11,10.0,ESE,12.7,-,N/A,,Clear,110,2012-10-31 08:53:00
3:53 AM,42.1,25.0,51,30.12,10.0,SE,11.5,-,N/A,,Clear,130,2012-10-31 09:53:00
4:53 AM,42.1,25.0,51,30.13,10.0,ESE,9.2,-,N/A,,Clear,110,2012-10-31 10:53:00
5:53 AM,37.9,24.1,57,30.15,10.0,SE,11.5,-,N/A,,Clear,130,2012-10-31 11:53:00
6:53 AM,36.0,24.1,62,30.18,10.0,SE,10.4,-,N/A,,Clear,140,2012-10-31 12:53:00
7:53 AM,37.9,25.0,60,30.19,10.0,ESE,12.7,-,N/A,,Clear,120,2012-10-31 13:53:00
8:53 AM,42.1,25.0,51,30.22,10.0,SE,6.9,-,N/A,,Clear,130,2012-10-31 14:53:00
9:53 AM,48.9,26.1,41,30.22,10.0,SSE,12.7,-,N/A,,Clear,160,2012-10-31 15:53:00
10:53 AM,54.0,26.1,34,30.18,10.0,SSE,12.7,-,N/A,,Clear,150,2012-10-31 16:53:00
11:53 AM,55.9,25.0,30,30.19,10.0,South,3.5,-,N/A,,Clear,180,2012-10-31 17:53:00
12:53 PM,61.0,25.0,25,30.13,10.0,South,3.5,-,N/A,,Clear,170,2012-10-31 18:53:00
1:53 PM,63.0,24.1,23,30.09,10.0,South,5.8,-,N/A,,Clear,180,2012-10-31 19:53:00
2:53 PM,66.0,25.0,21,30.04,10.0,Variable,3.5,-,N/A,,Clear,0,2012-10-31 20:53:00
3:53 PM,68.0,26.1,21,30.03,10.0,Calm,Calm,-,N/A,,Clear,0,2012-10-31 21:53:00
4:53 PM,68.0,26.1,21,30.01,10.0,West,4.6,-,N/A,,Clear,260,2012-10-31 22:53:00
5:53 PM,64.0,25.0,23,30.03,10.0,NW,4.6,-,N/A,,Clear,310,2012-10-31 23:53:00
6:53 PM,57.9,26.1,30,30.05,10.0,North,6.9,-,N/A,,Clear,350,2012-11-01 00:53:00
7:53 PM,50.0,23.0,35,30.11,10.0,Calm,Calm,-,N/A,,Clear,0,2012-11-01 01:53:00
8:53 PM,48.0,21.9,36,30.07,10.0,Calm,Calm,-,N/A,,Clear,0,2012-11-01 02:53:00
9:53 PM,48.0,24.1,39,30.07,10.0,East,4.6,-,N/A,,Clear,80,2012-11-01 03:53:00
10:53 PM,46.0,23.0,40,30.06,10.0,East,4.6,-,N/A,,Clear,90,2012-11-01 04:53:00
11:53 PM,45.0,23.0,42,30.06,10.0,East,5.8,-,N/A,,Clear,90,2012-11-01 05:53:00